[[{"header":{"parameterUnit":"m.s-1","parameterCategory":2,"la1":30.2991,"la2":30.254,"lo1":-89.0895,"lo2":-89.0444,"dy":0.0017,"dx":0.0017,"nx":28,"ny":28,"refTime":"2024-06-26T03:00:00:Z","depth":"0","parameterNumber":2,"parameterNumberName":"U-component_of_CURRENTS"},"data":[0,0,0,0,0,0,0,0,0,0,0,0,0,0,0,0,0,0,0,0,0,0,0,0,0,0,0,0,0,0,0,0,0,0,0,0,0,0,0,0,0,0,0,0,0,0,0,0,0,0,0,0,0,0,0,0,0,0,0.3086,0.3088,0,0.3218,0.322,0.3222,0.3269,0.3268,0.3268,0.3267,0.332,0.3322,0.3325,0,0,0,0,0,0,0,0,0,0,0,0,0,0.2938,0.294,0.3086,0.3088,0.3089,0.3218,0.322,0.3222,0.3269,0.3268,0.3267,0.3267,0.332,0.3322,0.3325,0,0,0,0,0,0,0,0,0,0,0,0,0,0.3032,0.2941,0.3086,0.3126,0.313,0.3218,0.322,0.3223,0.3269,0.3268,0.3267,0.3266,0.3319,0.3322,0.3325,0.3368,0,0,0.3335,0.3336,0,0,0,0,0,0,0,0,0.3027,0.3038,0.3118,0.3123,0.3128,0.3223,0.3187,0.3267,0.327,0.322,0.3267,0.3265,0.3279,0.3286,0.3319,0.3371,0.3373,0.3335,0.3337,0.3339,0.3339,0,0,0,0,0,0,0,0.302,0.3033,0.3142,0.312,0.3126,0.3158,0.317,0.3204,0.3256,0.3224,0.3227,0.3237,0.3282,0.3316,0.332,0.3374,0.3335,0.3338,0.334,0.3341,0.3487,0.3489,0,0,0,0,0,0,0.2996,0.3027,0.3138,0.3146,0.307,0.3161,0.3175,0.3197,0.3257,0.3265,0.3238,0.3239,0.3311,0.3316,0.3322,0.3382,0.3339,0.3342,0.3343,0.3485,0.3487,0.3489,0,0,0,0,0,0,0.2992,0.3005,0.3132,0.3085,0.3103,0.3164,0.3189,0.32,0.3234,0.3268,0.3274,0.326,0.331,0.3318,0.3341,0.3383,0.3343,0.3346,0.3483,0.3486,0.3488,0.3497,0,0,0,0,0,0,0.2988,0.3003,0.3017,0.3084,0.3105,0.3203,0.319,0.3203,0.324,0.3243,0.3289,0.3293,0.331,0.3336,0.3344,0.3387,0.3348,0.348,0.3484,0.3487,0.3494,0.35,0.3505,0,0,0,0,0,0.2982,0.3007,0.3017,0.3031,0.3121,0.3205,0.322,0.326,0.3242,0.3281,0.3282,0.3292,0.3366,0.3339,0.3349,0.3394,0.3479,0.3483,0.3487,0.3492,0.3499,0.3504,0,0,0,0,0,0,0.2954,0.3015,0.3028,0.3071,0.3139,0.3211,0.3235,0.3262,0.3299,0.3278,0.3301,0.3307,0.3362,0.337,0.334,0.345,0.3432,0.3438,0.3432,0.3439,0.3444,0.3445,0.3351,0,0,0,0,0,0.2952,0.2985,0.3055,0.3093,0.3112,0.3172,0.3207,0.3238,0.3275,0.3291,0.3327,0.3353,0.3393,0.3402,0.3452,0.3488,0.3547,0.353,0.3535,0.3539,0.355,0.3666,0.3682,0.3504,0.3504,0.3504,0,0,0.295,0.2989,0.3007,0.3089,0.3126,0.3185,0.3191,0.3242,0.3289,0.3287,0.3348,0.3382,0.3411,0.3468,0.3493,0.347,0.3626,0.3545,0.3548,0.3556,0.3672,0.369,0.3705,0.3507,0.3506,0.3506,0,0,0.297,0.2992,0.3028,0.3082,0.3145,0.3188,0.3202,0.3281,0.3307,0.3365,0.3382,0.3427,0.3487,0.3527,0.3544,0.3606,0.3663,0.3629,0.3638,0.3751,0.3766,0.3781,0.3894,0.3918,0.3614,0.3614,0.3614,0,0.2966,0.3025,0.3057,0.3108,0.315,0.3187,0.3243,0.3283,0.3368,0.3396,0.3381,0.3502,0.3521,0.3591,0.3606,0.362,0.3692,0.3604,0.3757,0.3773,0.3787,0.39,0.3927,0.3615,0.3615,0.3615,0.3615,0,0.3026,0.3068,0.3088,0.3163,0.3217,0.3269,0.3322,0.3374,0.3394,0.3444,0.3527,0.3559,0.3635,0.365,0.3633,0.3751,0.3774,0.3763,0.3737,0.3806,0.392,0.3948,0.3616,0.3616,0.3616,0.3615,0,0,0.3039,0.3115,0.3125,0.3163,0.3247,0.3301,0.3357,0.3443,0.3491,0.3548,0.3636,0.3678,0.3706,0.373,0.3744,0.3807,0.3963,0.3816,0.3821,0.392,0.423,0.4191,0.4217,0.3981,0.3985,0.3989,0.4273,0,0.3082,0.3174,0.3206,0.3294,0.3344,0.3386,0.3449,0.352,0.3572,0.3669,0.3693,0.3783,0.3731,0.3777,0.3835,0.3948,0.4035,0.3888,0.4155,0.4163,0.4114,0.4247,0.4054,0.4287,0.4301,0.4305,0.4309,0,0.315,0.3197,0.3285,0.3363,0.3386,0.3446,0.3553,0.3613,0.372,0.376,0.3832,0.3879,0.3984,0.3934,0.4143,0.4055,0.4148,0.4213,0.4226,0.4204,0.4176,0.4219,0.4337,0.4173,0.4352,0.4348,0.4345,0,0.3177,0.3259,0.3326,0.3358,0.3451,0.3494,0.3549,0.365,0.3703,0.3839,0.3908,0.4024,0.4118,0.4233,0.4337,0.4273,0.4581,0.452,0.4578,0.4577,0.4473,0.4454,0.4452,0.4697,0.4697,0.4696,0.4695,0,0.3237,0.3288,0.334,0.3382,0.3456,0.3517,0.3608,0.3677,0.3789,0.3873,0.3958,0.4068,0.42,0.4364,0.4433,0.4605,0.4675,0.4626,0.4662,0.4471,0.4449,0.4347,0.4271,0.4706,0.4704,0.4702,0.47,0,0.3281,0.3314,0.3385,0.3457,0.3476,0.3537,0.3622,0.3683,0.3793,0.3919,0.397,0.4163,0.4377,0.4505,0.4742,0.4747,0.4769,0.4942,0.4705,0.4706,0.4546,0.4479,0.4446,0.433,0.5061,0.5062,0.5062,0,0.3316,0.336,0.3423,0.344,0.3471,0.3542,0.3582,0.3681,0.3747,0.3967,0.4038,0.4289,0.4435,0.4767,0.4861,0.503,0.484,0.4929,0.4751,0.4549,0.4503,0.4315,0.4204,0.4637,0.4635,0.4632,0.4631,0,0.3367,0.3387,0.3425,0.3461,0.3495,0.3533,0.3605,0.3651,0.3779,0.3895,0.4086,0.4229,0.4544,0.4644,0.4861,0.4918,0.4654,0.4888,0.4747,0.4239,0.3971,0.387,0.4443,0.4611,0.4613,0.4614,0.4615,0.4616,0.3377,0.3403,0.3432,0.3465,0.3492,0.3512,0.3517,0.3598,0.3693,0.3825,0.4033,0.417,0.4364,0.4644,0.4679,0.4577,0.4579,0.4424,0.4392,0.4245,0.4007,0.4538,0.4686,0.4688,0.469,0.4692,0.4694,0,0.3356,0.3382,0.3421,0.3436,0.3438,0.3471,0.3508,0.3485,0.3547,0.3713,0.3851,0.3974,0.4075,0.4179,0.4211,0.4085,0.3895,0.396,0.3622,0.3564,0.4111,0.3959,0.387,0.387,0.387,0.387,0.3871,0.3871,0.3336,0.3356,0.3379,0.3368,0.337,0.3315,0.3307,0.3292,0.3357,0.3392,0.3434,0.3553,0.3729,0.3817,0.3697,0.3614,0.3329,0.3209,0.322,0.3553,0.359,0.3625,0.3461,0.3269,0.3268,0.2498,0.2492,0.2487]},{"header":{"parameterUnit":"m.s-1","parameterCategory":2,"la1":30.2991,"la2":30.254,"lo1":-89.0895,"lo2":-89.0444,"dy":0.0017,"dx":0.0017,"nx":28,"ny":28,"refTime":"2024-06-26T03:00:00:Z","depth":"0","parameterNumber":3,"parameterNumberName":"V-component_of_CURRENTS"},"data":[0,0,0,0,0,0,0,0,0,0,0,0,0,0,0,0,0,0,0,0,0,0,0,0,0,0,0,0,0,0,0,0,0,0,0,0,0,0,0,0,0,0,0,0,0,0,0,0,0,0,0,0,0,0,0,0,0,0,0.0036,0.0035,0,-0.0029,-0.0029,-0.003,-0.0038,-0.0038,-0.0038,-0.0037,-0.0087,-0.0089,-0.009,0,0,0,0,0,0,0,0,0,0,0,0,0,0.0136,0.0135,0.0036,0.0035,0.0034,-0.0029,-0.0029,-0.003,-0.0038,-0.0038,-0.0038,-0.0037,-0.0087,-0.0089,-0.0091,0,0,0,0,0,0,0,0,0,0,0,0,0,0.0088,0.0135,0.0036,0.0019,0.0017,-0.0029,-0.0029,-0.003,-0.0038,-0.0038,-0.0037,-0.0037,-0.0086,-0.0088,-0.0091,-0.0114,0,0,-0.0098,-0.0099,0,0,0,0,0,0,0,0,0.0091,0.0085,0.0023,0.002,0.0017,-0.0028,-0.0012,-0.0059,-0.0038,-0.0014,-0.0037,-0.0037,-0.0069,-0.0073,-0.0081,-0.0116,-0.0119,-0.0098,-0.01,-0.0101,-0.0101,0,0,0,0,0,0,0,0.0094,0.0087,0.0014,0.0022,0.0018,0.0009,0.0003,-0.0021,-0.004,-0.0016,-0.0017,-0.003,-0.007,-0.0078,-0.0082,-0.0119,-0.0098,-0.01,-0.0102,-0.0103,-0.014,-0.014,0,0,0,0,0,0,0.0095,0.009,0.0016,0.0012,0.0052,0.0007,0.0001,-0.0011,-0.004,-0.0045,-0.0031,-0.0031,-0.0075,-0.0079,-0.0084,-0.0092,-0.0101,-0.0103,-0.0104,-0.0141,-0.014,-0.014,0,0,0,0,0,0,0.0097,0.0089,0.0018,0.0047,0.0037,0.0004,-0.0008,-0.0013,-0.002,-0.0052,-0.0056,-0.0034,-0.0074,-0.008,-0.011,-0.0095,-0.0104,-0.0106,-0.0141,-0.0141,-0.014,-0.0122,0,0,0,0,0,0,0.01,0.009,0.0085,0.0047,0.0035,-0.0005,-0.0009,-0.0014,-0.0031,-0.0031,-0.0057,-0.0061,-0.0075,-0.0106,-0.0112,-0.0098,-0.0108,-0.0142,-0.0141,-0.014,-0.0123,-0.0121,-0.0119,0,0,0,0,0,0.0104,0.0096,0.0085,0.0076,0.0028,-0.0005,-0.0011,-0.0031,-0.0031,-0.0035,-0.0057,-0.006,-0.0104,-0.0109,-0.0116,-0.0102,-0.0142,-0.0141,-0.014,-0.0124,-0.0121,-0.0119,0,0,0,0,0,0,0.0149,0.0093,0.0081,0.0059,0.003,-0.0008,-0.0021,-0.003,-0.005,-0.0051,-0.0072,-0.0079,-0.0089,-0.0104,-0.0108,-0.0108,-0.0116,-0.0117,-0.0101,-0.0099,-0.0097,-0.0043,-0.011,0,0,0,0,0,0.0152,0.0129,0.0081,0.0068,0.0045,0.0013,-0.0002,-0.0014,-0.0041,-0.0048,-0.0069,-0.0084,-0.0091,-0.0103,-0.0114,-0.0132,-0.0103,-0.0121,-0.0118,-0.0117,-0.0076,-0.0015,-0.0003,-0.0137,-0.0137,-0.0137,0,0,0.0169,0.0134,0.0124,0.0075,0.0046,0.002,0.0006,-0.0019,-0.0022,-0.0052,-0.0067,-0.008,-0.0093,-0.0102,-0.0107,-0.0115,-0.0074,-0.0115,-0.0114,-0.0073,-0.0013,0.0001,0.0012,-0.0136,-0.0136,-0.0136,0,0,0.0178,0.0153,0.0127,0.0101,0.0052,0.0031,0.0024,-0.0018,-0.0021,-0.0051,-0.0052,-0.005,-0.0097,-0.0078,-0.008,-0.0071,-0.006,-0.0085,-0.0038,0.0019,0.0032,0.0043,0.0056,0.0068,-0.0089,-0.0089,-0.0089,0,0.0202,0.0166,0.0119,0.0088,0.0079,0.0036,0.0024,0.0006,-0.0031,-0.0009,-0.0054,-0.0044,-0.0072,-0.0026,-0.0032,-0.0061,-0.0043,-0.0052,0.0025,0.0037,0.0049,0.0059,0.0073,-0.0088,-0.0088,-0.0088,-0.0088,0,0.0184,0.0163,0.0147,0.0095,0.008,0.0065,0.003,0.0026,0.0007,0.0009,0.0038,0.0004,0.003,0.0006,-0.0024,0.0053,0.0032,0.0024,0.0023,0.0064,0.0071,0.0085,-0.0087,-0.0087,-0.0087,-0.0087,0,0,0.0215,0.015,0.0143,0.0146,0.0092,0.0089,0.0079,0.0088,0.0135,0.0088,0.0161,0.0121,0.0135,0.0138,0.0118,0.0146,0.0201,0.0113,0.0116,0.0134,0.0302,0.0234,0.0242,0.0205,0.0209,0.0212,0.0259,0,0.0219,0.0188,0.015,0.0154,0.0146,0.0128,0.0145,0.0159,0.0163,0.0218,0.0216,0.0264,0.0176,0.0204,0.0216,0.0233,0.0246,0.0188,0.0255,0.0257,0.02,0.0261,0.0227,0.0264,0.0273,0.0275,0.0277,0,0.0206,0.0195,0.0197,0.0223,0.0221,0.0229,0.0293,0.0304,0.0364,0.0379,0.042,0.0425,0.0473,0.0388,0.0427,0.0393,0.0354,0.0338,0.0339,0.0296,0.0219,0.0233,0.029,0.0078,0.0299,0.0297,0.0295,0,0.0259,0.0238,0.0258,0.0257,0.0265,0.03,0.032,0.0372,0.0433,0.0511,0.0583,0.0609,0.0669,0.063,0.056,0.0513,0.0599,0.0532,0.043,0.0422,0.0422,0.0409,0.0301,0.057,0.057,0.057,0.057,0,0.0284,0.0304,0.0295,0.0309,0.0388,0.0374,0.0475,0.0505,0.0595,0.0719,0.0693,0.0807,0.0741,0.0762,0.065,0.0593,0.067,0.0473,0.0454,0.0418,0.0405,0.0243,0.0147,0.0571,0.0571,0.0571,0.057,0,0.0341,0.032,0.036,0.0387,0.0411,0.0476,0.0567,0.0653,0.0721,0.0887,0.093,0.1006,0.104,0.0933,0.0902,0.0741,0.0559,0.0618,0.0552,0.0524,0.0193,0.01,0.0044,-0.003,0.0519,0.0518,0.0517,0,0.037,0.0389,0.043,0.0472,0.0491,0.0575,0.0649,0.0716,0.0823,0.1019,0.1131,0.1215,0.1304,0.1198,0.0955,0.0761,0.0576,0.0553,0.0451,0.0197,0.0082,0.001,-0.0054,0.044,0.0439,0.0438,0.0437,0,0.0445,0.0453,0.0484,0.0564,0.064,0.0738,0.0852,0.0957,0.108,0.1243,0.147,0.1563,0.1459,0.1293,0.0985,0.0804,0.0394,0.052,0.031,0.0067,-0.006,-0.015,0.0342,0.0426,0.0427,0.0428,0.0429,0.0429,0.0509,0.0554,0.0587,0.0674,0.0763,0.0907,0.102,0.1169,0.138,0.1657,0.1713,0.1894,0.155,0.1154,0.0885,0.0294,0.034,0.0091,0.0016,-0.0022,-0.014,0.0298,0.0321,0.0321,0.0321,0.0322,0.0322,0,0.0586,0.0625,0.07,0.0808,0.0926,0.0959,0.1165,0.1309,0.1581,0.183,0.2034,0.1946,0.1514,0.1027,0.0263,-0.0141,-0.028,-0.037,-0.048,-0.0508,-0.0069,-0.0124,-0.026,-0.026,-0.026,-0.026,-0.026,-0.0259,0.0625,0.0702,0.0739,0.0935,0.1024,0.122,0.1351,0.1579,0.1781,0.2093,0.221,0.2257,0.1834,0.0493,-0.0432,-0.0643,-0.0885,-0.0944,-0.1044,-0.0787,-0.0751,-0.0716,-0.0794,-0.1068,-0.1069,-0.146,-0.1464,-0.1468]}],[{"header":{"parameterUnit":"m.s-1","parameterCategory":2,"la1":30.2991,"la2":30.254,"lo1":-89.0895,"lo2":-89.0444,"dy":0.0017,"dx":0.0017,"nx":28,"ny":28,"refTime":"2024-06-26T03:00:00:Z","depth":"2","parameterNumber":2,"parameterNumberName":"U-component_of_CURRENTS"},"data":[0,0,0,0,0,0,0,0,0,0,0,0,0,0,0,0,0,0,0,0,0,0,0,0,0,0,0,0,0,0,0,0,0,0,0,0,0,0,0,0,0,0,0,0,0,0,0,0,0,0,0,0,0,0,0,0,0,0,0.1964,0.1963,0,0.1769,0.1765,0.1762,0.1664,0.1665,0.1667,0.1668,0.1739,0.174,0.1741,0,0,0,0,0,0,0,0,0,0,0,0,0,0.1985,0.1986,0.1964,0.1963,0.1962,0.1769,0.1765,0.1761,0.1664,0.1665,0.1667,0.1669,0.1739,0.174,0.1741,0,0,0,0,0,0,0,0,0,0,0,0,0,0.1887,0.1986,0.1964,0.1902,0.1896,0.177,0.1765,0.176,0.1663,0.1665,0.1667,0.1669,0.1739,0.174,0.1741,0.1704,0,0,0.1743,0.1744,0,0,0,0,0,0,0,0,0.1893,0.1885,0.1912,0.1906,0.1899,0.1757,0.1799,0.176,0.1663,0.1735,0.1668,0.1671,0.1779,0.1776,0.1708,0.1707,0.171,0.1743,0.1744,0.1744,0.1745,0,0,0,0,0,0,0,0.1901,0.1891,0.1871,0.1911,0.1903,0.1793,0.1782,0.1787,0.174,0.1729,0.1725,0.1728,0.1775,0.1707,0.1711,0.1711,0.1743,0.1744,0.1745,0.1745,0.1889,0.1892,0,0,0,0,0,0,0.1968,0.1899,0.1877,0.1866,0.1919,0.1793,0.178,0.1787,0.1734,0.173,0.1726,0.1724,0.1705,0.171,0.1714,0.1821,0.1744,0.1745,0.1746,0.1885,0.1889,0.1893,0,0,0,0,0,0,0.1969,0.1968,0.1885,0.189,0.1874,0.1795,0.18,0.1783,0.1778,0.1732,0.1731,0.175,0.1707,0.1712,0.1825,0.1819,0.1745,0.1746,0.1881,0.1887,0.1891,0.194,0,0,0,0,0,0,0.1971,0.1969,0.1972,0.1896,0.1877,0.1841,0.18,0.1778,0.178,0.1777,0.1752,0.1755,0.1709,0.1825,0.1826,0.1818,0.1747,0.1877,0.1884,0.189,0.1934,0.1946,0.1956,0,0,0,0,0,0.1972,0.1991,0.1973,0.197,0.1893,0.1843,0.1821,0.1759,0.1781,0.1765,0.1818,0.1759,0.1863,0.1831,0.1831,0.1822,0.1874,0.1882,0.1889,0.1929,0.1943,0.1955,0,0,0,0,0,0,0.1991,0.1982,0.1961,0.1973,0.1926,0.1834,0.1829,0.1803,0.1813,0.1842,0.1825,0.1833,0.189,0.1896,0.1861,0.189,0.1848,0.1856,0.1878,0.1892,0.1902,0.2029,0.1748,0,0,0,0,0,0.2003,0.2017,0.1979,0.198,0.1989,0.1923,0.1898,0.1854,0.1862,0.1863,0.1853,0.1879,0.1902,0.1944,0.1924,0.1989,0.2056,0.1983,0.1994,0.2002,0.2113,0.223,0.2262,0.1917,0.1917,0.1917,0,0,0.1999,0.2006,0.2003,0.1985,0.1959,0.1941,0.1912,0.1897,0.1889,0.1881,0.1905,0.1901,0.1926,0.1954,0.1983,0.198,0.2124,0.2012,0.2019,0.2127,0.2242,0.2276,0.2306,0.1922,0.1921,0.1921,0,0,0.2024,0.2035,0.206,0.2028,0.2012,0.1976,0.2005,0.1945,0.1944,0.199,0.1961,0.2046,0.2045,0.2067,0.209,0.219,0.2151,0.2116,0.2302,0.241,0.2441,0.2469,0.2538,0.2572,0.2151,0.2151,0.2151,0,0.2032,0.2051,0.2049,0.2055,0.2051,0.2024,0.2034,0.2009,0.1979,0.2058,0.2032,0.2124,0.2125,0.2235,0.2261,0.2215,0.2254,0.2229,0.2426,0.2455,0.2483,0.2548,0.2585,0.2155,0.2154,0.2154,0.2154,0,0.2041,0.2061,0.209,0.2098,0.2082,0.2088,0.2078,0.2096,0.2138,0.2152,0.2276,0.2284,0.2378,0.2335,0.2351,0.2506,0.2455,0.239,0.2388,0.2521,0.258,0.2617,0.2159,0.2158,0.2157,0.2156,0,0,0.2105,0.2102,0.2122,0.2135,0.2114,0.2115,0.2166,0.2248,0.2365,0.2361,0.2527,0.2581,0.2618,0.2658,0.2611,0.2741,0.2931,0.2679,0.2682,0.2745,0.3151,0.2968,0.299,0.2871,0.288,0.2886,0.3091,0,0.2141,0.2158,0.2159,0.2192,0.2207,0.2222,0.2287,0.235,0.2441,0.2574,0.2675,0.2786,0.2715,0.2773,0.2884,0.2911,0.3044,0.2883,0.3025,0.3031,0.2849,0.3034,0.277,0.292,0.3127,0.3133,0.3138,0,0.2166,0.2186,0.2209,0.2283,0.2313,0.2341,0.2508,0.2549,0.2743,0.2823,0.2973,0.3022,0.3207,0.3114,0.3318,0.3202,0.3239,0.3264,0.3269,0.3143,0.2923,0.2837,0.298,0.3201,0.3196,0.3191,0.3187,0,0.2201,0.2248,0.2283,0.2275,0.2333,0.2434,0.2516,0.2678,0.2777,0.3005,0.3121,0.3295,0.3396,0.3496,0.3539,0.3458,0.3747,0.3613,0.3492,0.3475,0.3319,0.3274,0.3837,0.3836,0.3836,0.3835,0.3835,0,0.2226,0.2273,0.2318,0.2336,0.2459,0.2498,0.2691,0.2796,0.2978,0.3116,0.3256,0.3368,0.3513,0.3648,0.366,0.3695,0.3838,0.3623,0.3562,0.3315,0.327,0.357,0.3536,0.3843,0.3841,0.384,0.3839,0,0.224,0.2241,0.2314,0.2428,0.2462,0.2569,0.2748,0.2868,0.305,0.3217,0.3303,0.3509,0.3686,0.3785,0.3962,0.3836,0.3897,0.3869,0.355,0.3448,0.3522,0.3489,0.3795,0.3791,0.3788,0.3785,0.3783,0,0.2205,0.2232,0.2378,0.2398,0.2465,0.2605,0.2679,0.2872,0.2963,0.3256,0.3311,0.3598,0.368,0.3858,0.3824,0.3856,0.3914,0.3552,0.3374,0.3634,0.3542,0.3513,0.3485,0.3169,0.3162,0.3156,0.3152,0,0.2164,0.226,0.2326,0.2392,0.2467,0.2565,0.2698,0.2771,0.2972,0.3104,0.328,0.3411,0.3612,0.3534,0.3574,0.3525,0.3519,0.3427,0.3877,0.3178,0.3049,0.2954,0.2948,0.31,0.3105,0.3109,0.3112,0.3114,0.214,0.2194,0.2279,0.2344,0.2422,0.2499,0.2566,0.2648,0.2761,0.2889,0.308,0.315,0.3219,0.3156,0.3087,0.3058,0.3265,0.307,0.3087,0.3111,0.296,0.2828,0.2811,0.2814,0.2817,0.2819,0.2822,0,0.206,0.2132,0.218,0.2262,0.2311,0.2436,0.2522,0.2524,0.2568,0.2642,0.2737,0.2535,0.2531,0.2661,0.254,0.2486,0.2464,0.2377,0.2343,0.2396,0.2443,0.2256,0.1922,0.1919,0.1916,0.1913,0,0,0.2007,0.202,0.2059,0.2084,0.2191,0.2266,0.2326,0.2293,0.2306,0.2175,0.2161,0.2361,0.2522,0.216,0.2129,0.2021,0.218,0.1937,0.2666,0.2678,0.2721,0.2858,0.2632,0,0,0,0,0]},{"header":{"parameterUnit":"m.s-1","parameterCategory":2,"la1":30.2991,"la2":30.254,"lo1":-89.0895,"lo2":-89.0444,"dy":0.0017,"dx":0.0017,"nx":28,"ny":28,"refTime":"2024-06-26T03:00:00:Z","depth":"2","parameterNumber":3,"parameterNumberName":"V-component_of_CURRENTS"},"data":[0,0,0,0,0,0,0,0,0,0,0,0,0,0,0,0,0,0,0,0,0,0,0,0,0,0,0,0,0,0,0,0,0,0,0,0,0,0,0,0,0,0,0,0,0,0,0,0,0,0,0,0,0,0,0,0,0,0,-0.0444,-0.0445,0,-0.0594,-0.0596,-0.0598,-0.0657,-0.0656,-0.0656,-0.0655,-0.0681,-0.0683,-0.0684,0,0,0,0,0,0,0,0,0,0,0,0,0,-0.0272,-0.0275,-0.0444,-0.0446,-0.0448,-0.0594,-0.0596,-0.0598,-0.0657,-0.0656,-0.0656,-0.0655,-0.0681,-0.0682,-0.0684,0,0,0,0,0,0,0,0,0,0,0,0,0,-0.0377,-0.0275,-0.0443,-0.0494,-0.0501,-0.0594,-0.0596,-0.0599,-0.0657,-0.0656,-0.0656,-0.0655,-0.0681,-0.0682,-0.0684,-0.0706,0,0,-0.0689,-0.0689,0,0,0,0,0,0,0,0,-0.0371,-0.0383,-0.0485,-0.0491,-0.0498,-0.0606,-0.0545,-0.0628,-0.0657,-0.0597,-0.0655,-0.0655,-0.0645,-0.065,-0.0681,-0.0707,-0.0708,-0.0689,-0.069,-0.0691,-0.0691,0,0,0,0,0,0,0,-0.0363,-0.0377,-0.0503,-0.0487,-0.0495,-0.0532,-0.0546,-0.0562,-0.062,-0.0602,-0.0607,-0.0624,-0.0648,-0.0679,-0.0682,-0.0708,-0.0689,-0.069,-0.0691,-0.0692,-0.073,-0.073,0,0,0,0,0,0,-0.0343,-0.037,-0.0498,-0.0508,-0.0432,-0.0535,-0.0551,-0.0572,-0.0623,-0.0631,-0.0625,-0.0626,-0.0677,-0.068,-0.0683,-0.0689,-0.069,-0.0692,-0.0693,-0.073,-0.073,-0.073,0,0,0,0,0,0,-0.0338,-0.0353,-0.0492,-0.0442,-0.0462,-0.0539,-0.0562,-0.0575,-0.0609,-0.0641,-0.0647,-0.0645,-0.0677,-0.068,-0.067,-0.0691,-0.0693,-0.0694,-0.073,-0.073,-0.073,-0.0715,0,0,0,0,0,0,-0.0333,-0.0351,-0.0363,-0.0441,-0.0464,-0.0556,-0.0563,-0.0579,-0.062,-0.0624,-0.066,-0.0663,-0.0677,-0.0667,-0.0671,-0.0693,-0.0695,-0.073,-0.073,-0.073,-0.0716,-0.0715,-0.0714,0,0,0,0,0,-0.0326,-0.0342,-0.0362,-0.0378,-0.0477,-0.0558,-0.0574,-0.0625,-0.0622,-0.065,-0.0639,-0.0662,-0.0672,-0.0667,-0.0673,-0.0696,-0.073,-0.073,-0.073,-0.0716,-0.0715,-0.0714,0,0,0,0,0,0,-0.027,-0.0352,-0.0375,-0.0414,-0.0485,-0.0568,-0.0588,-0.0625,-0.0646,-0.063,-0.0649,-0.0651,-0.0657,-0.0671,-0.0665,-0.0707,-0.0711,-0.0712,-0.0699,-0.0698,-0.0697,-0.061,-0.0697,0,0,0,0,0,-0.0264,-0.0301,-0.0384,-0.0418,-0.044,-0.0512,-0.0549,-0.0589,-0.062,-0.0632,-0.0654,-0.0661,-0.0666,-0.0672,-0.0687,-0.07,-0.0668,-0.0722,-0.0721,-0.0721,-0.0653,-0.0602,-0.0589,-0.073,-0.073,-0.073,0,0,-0.0247,-0.0302,-0.032,-0.0409,-0.0453,-0.0502,-0.0532,-0.0585,-0.0615,-0.0625,-0.0646,-0.0658,-0.0667,-0.0682,-0.0688,-0.0692,-0.068,-0.0721,-0.072,-0.0651,-0.0601,-0.0586,-0.0574,-0.0731,-0.0731,-0.0731,0,0,-0.0243,-0.0279,-0.031,-0.037,-0.0448,-0.0491,-0.0504,-0.0585,-0.0602,-0.063,-0.0635,-0.062,-0.0674,-0.0658,-0.066,-0.0655,-0.0675,-0.071,-0.0638,-0.0592,-0.0578,-0.0566,-0.057,-0.0557,-0.0713,-0.0713,-0.0713,0,-0.022,-0.0281,-0.0332,-0.0384,-0.0419,-0.048,-0.0514,-0.0551,-0.0621,-0.0596,-0.0629,-0.0619,-0.0642,-0.06,-0.0608,-0.0647,-0.0646,-0.0646,-0.0587,-0.0573,-0.056,-0.0566,-0.0553,-0.0712,-0.0712,-0.0712,-0.0712,0,-0.0262,-0.0302,-0.0318,-0.0398,-0.0436,-0.0482,-0.053,-0.0545,-0.0562,-0.0583,-0.0548,-0.0561,-0.0534,-0.058,-0.0591,-0.0531,-0.0572,-0.0591,-0.0581,-0.0544,-0.0556,-0.0542,-0.0711,-0.0711,-0.0712,-0.0712,0,0,-0.0229,-0.0328,-0.0335,-0.0349,-0.0447,-0.0468,-0.0482,-0.0493,-0.0436,-0.05,-0.0423,-0.0448,-0.0429,-0.0422,-0.0451,-0.0417,-0.0369,-0.0467,-0.0465,-0.0455,-0.0306,-0.0396,-0.0391,-0.0392,-0.0388,-0.0385,-0.0373,0,-0.0246,-0.0317,-0.0368,-0.0399,-0.0421,-0.0453,-0.0439,-0.0441,-0.0427,-0.0369,-0.0354,-0.0296,-0.0384,-0.0341,-0.0332,-0.033,-0.0321,-0.0371,-0.0352,-0.035,-0.0421,-0.0371,-0.0358,-0.0348,-0.0359,-0.0356,-0.0355,0,-0.0287,-0.0315,-0.0351,-0.035,-0.0352,-0.0361,-0.0288,-0.029,-0.0218,-0.0196,-0.0143,-0.0126,-0.0066,-0.0143,-0.0122,-0.016,-0.0216,-0.024,-0.0241,-0.0293,-0.041,-0.0375,-0.0322,-0.0331,-0.0333,-0.0335,-0.0336,0,-0.0237,-0.0299,-0.0307,-0.033,-0.034,-0.0299,-0.0276,-0.0211,-0.0148,-0.0046,0.0034,0.0066,0.0135,0.0085,0.0002,-0.0042,0.0011,-0.0059,-0.02,-0.0211,-0.0167,-0.018,-0.0026,-0.0026,-0.0026,-0.0026,-0.0026,0,-0.0256,-0.0261,-0.0267,-0.0267,-0.02,-0.0215,-0.0102,-0.0069,0.0036,0.0146,0.0153,0.0256,0.0206,0.0207,0.0083,-0.0015,0.0066,-0.0141,-0.0184,-0.0176,-0.0189,-0.0135,-0.0148,-0.0026,-0.0026,-0.0026,-0.0026,0,-0.0229,-0.0266,-0.0239,-0.02,-0.0183,-0.0114,-0.0018,0.0073,0.0167,0.0318,0.0372,0.0443,0.0459,0.0353,0.03,0.0117,0.0022,-0.0049,-0.0067,-0.0111,-0.026,-0.0272,-0.0171,-0.0173,-0.0175,-0.0177,-0.0178,0,-0.0252,-0.0238,-0.016,-0.0128,-0.0111,-0.0022,0.0042,0.0126,0.0226,0.0424,0.0507,0.0603,0.0637,0.0495,0.0275,0.0066,0.0027,-0.0119,-0.0185,-0.0207,-0.026,-0.0269,-0.0279,-0.015,-0.0151,-0.0152,-0.0153,0,-0.0246,-0.0192,-0.0143,-0.0056,0.0008,0.0094,0.0201,0.0302,0.0431,0.059,0.0771,0.0836,0.0707,0.0536,0.0233,0.0069,-0.0085,-0.0149,-0.0092,-0.0139,-0.0193,-0.0245,-0.0252,-0.0161,-0.016,-0.016,-0.0159,-0.0159,-0.0208,-0.0156,-0.0065,0.0018,0.0099,0.0233,0.0361,0.0497,0.0703,0.0977,0.0952,0.1066,0.078,0.0458,0.0161,-0.013,-0.0121,-0.0264,-0.0258,-0.0252,-0.0274,-0.033,-0.0331,-0.0331,-0.0331,-0.0331,-0.0331,0,-0.0145,-0.0096,-0.0018,0.0121,0.025,0.0288,0.048,0.0655,0.0944,0.1099,0.1271,0.1032,0.0803,0.0499,0.0053,-0.0269,-0.0267,-0.0363,-0.0291,-0.0282,-0.0275,-0.0296,-0.036,-0.036,-0.0361,-0.0361,0,0,-0.0115,-0.0027,0.0021,0.0231,0.035,0.0585,0.0734,0.0993,0.116,0.1354,0.1408,0.1395,0.0925,0.0593,0.0182,-0.0075,-0.0102,-0.0128,-0.0078,0.0063,0.0075,-0.0198,-0.0219,0,0,0,0,0]}],[{"header":{"parameterUnit":"m.s-1","parameterCategory":2,"la1":30.2991,"la2":30.254,"lo1":-89.0895,"lo2":-89.0444,"dy":0.0017,"dx":0.0017,"nx":28,"ny":28,"refTime":"2024-06-26T03:00:00:Z","depth":"4","parameterNumber":2,"parameterNumberName":"U-component_of_CURRENTS"},"data":[0,0,0,0,0,0,0,0,0,0,0,0,0,0,0,0,0,0,0,0,0,0,0,0,0,0,0,0,0,0,0,0,0,0,0,0,0,0,0,0,0,0,0,0,0,0,0,0,0,0,0,0,0,0,0,0,0,0,0.0457,0.0458,0,0.0516,0.0516,0.0517,0.0607,0.0608,0.061,0.0611,0.0724,0.0725,0.0727,0,0,0,0,0,0,0,0,0,0,0,0,0,0.0416,0.0416,0.0457,0.0458,0.0458,0.0516,0.0516,0.0517,0.0606,0.0608,0.061,0.0612,0.0723,0.0725,0.0727,0,0,0,0,0,0,0,0,0,0,0,0,0,0.045,0.0416,0.0457,0.051,0.0515,0.0515,0.0516,0.0517,0.0606,0.0608,0.0611,0.0613,0.0723,0.0725,0.0727,0.0693,0,0,0.0734,0.0735,0,0,0,0,0,0,0,0,0.0448,0.0452,0.0501,0.0506,0.0512,0.0556,0.0543,0.0579,0.0605,0.0571,0.0611,0.0614,0.0671,0.0677,0.0682,0.0698,0.0703,0.0734,0.0735,0.0736,0.0737,0,0,0,0,0,0,0,0.0446,0.0449,0.048,0.0502,0.0508,0.0529,0.0536,0.055,0.0608,0.0575,0.0581,0.0587,0.0675,0.068,0.0686,0.0705,0.0734,0.0736,0.0737,0.0738,0.0822,0.0822,0,0,0,0,0,0,0.0436,0.0447,0.0478,0.0482,0.0485,0.0527,0.0536,0.054,0.0607,0.0619,0.0585,0.0591,0.0675,0.0683,0.069,0.0787,0.0736,0.0738,0.074,0.0821,0.0822,0.0823,0,0,0,0,0,0,0.0435,0.0438,0.0476,0.0466,0.0473,0.0526,0.0529,0.054,0.0598,0.0614,0.0628,0.0639,0.0677,0.0687,0.0757,0.0787,0.0739,0.0742,0.082,0.0821,0.0822,0.0894,0,0,0,0,0,0,0.0433,0.0437,0.0465,0.0465,0.0473,0.0498,0.0527,0.0539,0.0594,0.0604,0.0663,0.0673,0.068,0.0753,0.0759,0.0789,0.0743,0.0819,0.082,0.0822,0.0891,0.0898,0.0904,0,0,0,0,0,0.0431,0.0442,0.0466,0.0472,0.05,0.0499,0.0505,0.055,0.0595,0.0614,0.0675,0.0674,0.0767,0.0757,0.0763,0.0794,0.0818,0.082,0.0822,0.0888,0.0896,0.0903,0,0,0,0,0,0,0.0437,0.0452,0.0479,0.0496,0.0512,0.0515,0.0537,0.0575,0.0635,0.0663,0.0695,0.0708,0.0775,0.0771,0.0759,0.0819,0.0787,0.0791,0.0835,0.0843,0.085,0.0898,0.0745,0,0,0,0,0,0.0449,0.046,0.0478,0.049,0.0501,0.0532,0.0552,0.0581,0.0618,0.065,0.069,0.0733,0.0774,0.0804,0.0824,0.0864,0.0888,0.0882,0.0889,0.0895,0.0936,0.094,0.0951,0.0829,0.0829,0.0829,0,0,0.0449,0.0462,0.0469,0.0494,0.0508,0.0531,0.055,0.0579,0.0619,0.0649,0.0726,0.076,0.079,0.0839,0.0866,0.0851,0.0955,0.0897,0.0902,0.0942,0.0943,0.0955,0.0966,0.0831,0.083,0.083,0,0,0.0432,0.0469,0.0474,0.0496,0.053,0.0549,0.057,0.0602,0.0644,0.0704,0.0747,0.0814,0.0855,0.0895,0.0918,0.0971,0.0987,0.0968,0.1048,0.105,0.1061,0.1071,0.1175,0.1193,0.0972,0.0973,0.0973,0,0.0444,0.0455,0.0475,0.0493,0.0524,0.0565,0.0593,0.0627,0.0686,0.0747,0.0737,0.0872,0.0881,0.0989,0.1009,0.0989,0.1029,0.1018,0.1061,0.107,0.1079,0.1183,0.1202,0.0976,0.0976,0.0976,0.0975,0,0.0433,0.0463,0.0462,0.0508,0.0544,0.0565,0.0617,0.0666,0.0724,0.0792,0.0912,0.0937,0.1038,0.1027,0.1042,0.1126,0.1153,0.1067,0.1045,0.1096,0.1203,0.1222,0.0982,0.098,0.0979,0.0978,0,0,0.0402,0.0449,0.0454,0.0486,0.0564,0.0579,0.0654,0.0748,0.0829,0.0905,0.1022,0.1098,0.1171,0.1203,0.1224,0.1227,0.1323,0.1191,0.1189,0.1308,0.1422,0.1297,0.1306,0.1238,0.124,0.1241,0.1495,0,0.0396,0.0421,0.0464,0.0514,0.0539,0.0617,0.0687,0.0793,0.0878,0.0994,0.1094,0.1214,0.1221,0.1284,0.1303,0.131,0.1367,0.1269,0.1347,0.1352,0.124,0.1318,0.1248,0.1509,0.1513,0.1516,0.1518,0,0.0379,0.0404,0.0445,0.0532,0.0555,0.0619,0.0756,0.0828,0.1014,0.1096,0.1265,0.1347,0.1491,0.1409,0.1536,0.148,0.1493,0.1474,0.148,0.1352,0.1257,0.1431,0.1552,0.1549,0.1547,0.1544,0.1542,0,0.0332,0.0393,0.0427,0.0457,0.0564,0.0633,0.0728,0.0896,0.0986,0.1206,0.1307,0.1486,0.1583,0.1616,0.1649,0.1604,0.1724,0.1637,0.157,0.1567,0.1574,0.156,0.1712,0.1711,0.1711,0.171,0.1709,0,0.0308,0.0331,0.0419,0.0441,0.0526,0.0636,0.0769,0.0881,0.1074,0.1202,0.14,0.1493,0.1621,0.1708,0.1713,0.1732,0.1801,0.1638,0.1611,0.1606,0.1593,0.1592,0.1574,0.172,0.1718,0.1716,0.1714,0,0.0243,0.0291,0.0325,0.0446,0.0501,0.0577,0.0787,0.0875,0.1088,0.1245,0.1336,0.1554,0.1673,0.1787,0.184,0.1809,0.1814,0.1794,0.1894,0.186,0.167,0.1653,0.1794,0.1791,0.1789,0.1787,0.1786,0,0.021,0.0218,0.031,0.035,0.0419,0.0559,0.0655,0.0871,0.0967,0.1236,0.1291,0.1506,0.1627,0.1713,0.1769,0.1869,0.1805,0.1872,0.1695,0.1714,0.1674,0.1661,0.1648,0.1782,0.1782,0.1781,0.1781,0,0.0144,0.017,0.02,0.0286,0.0378,0.0469,0.0633,0.07,0.0933,0.1106,0.1268,0.1395,0.1531,0.1629,0.1741,0.1757,0.1854,0.1848,0.1851,0.1685,0.1701,0.166,0.165,0.1773,0.1774,0.1775,0.1775,0,0.0095,0.0091,0.0138,0.0221,0.0303,0.038,0.0479,0.0629,0.0765,0.1065,0.1077,0.131,0.1475,0.1569,0.1625,0.1691,0.1652,0.161,0.1624,0.1634,0.1451,0.1439,0.1448,0,0,0,0,0,0.0049,0.0046,0.0088,0.0169,0.0243,0.0309,0.0452,0.0556,0.0755,0.084,0.0984,0.1107,0.1279,0.1379,0.1416,0.1515,0.1628,0.1548,0.1575,0.173,0.1739,0.153,0,0,0,0,0,0,0.0017,0.0027,0.0052,0.0111,0.0164,0.0254,0.0336,0.0471,0.0549,0.0755,0.0856,0.1031,0.1202,0.125,0.139,0.1422,0.1418,0.1683,0.1681,0.1725,0.1733,0.1741,0.1529,0,0,0,0,0]},{"header":{"parameterUnit":"m.s-1","parameterCategory":2,"la1":30.2991,"la2":30.254,"lo1":-89.0895,"lo2":-89.0444,"dy":0.0017,"dx":0.0017,"nx":28,"ny":28,"refTime":"2024-06-26T03:00:00:Z","depth":"4","parameterNumber":3,"parameterNumberName":"V-component_of_CURRENTS"},"data":[0,0,0,0,0,0,0,0,0,0,0,0,0,0,0,0,0,0,0,0,0,0,0,0,0,0,0,0,0,0,0,0,0,0,0,0,0,0,0,0,0,0,0,0,0,0,0,0,0,0,0,0,0,0,0,0,0,0,0.0182,0.0182,0,0.0161,0.016,0.016,0.0111,0.011,0.0109,0.0108,-0.0014,-0.0017,-0.0019,0,0,0,0,0,0,0,0,0,0,0,0,0,0.0174,0.0174,0.0182,0.0182,0.0182,0.0161,0.016,0.016,0.0111,0.011,0.0109,0.0108,-0.0013,-0.0016,-0.002,0,0,0,0,0,0,0,0,0,0,0,0,0,0.0165,0.0174,0.0182,0.0158,0.0155,0.0161,0.016,0.016,0.0111,0.011,0.0109,0.0108,-0.0012,-0.0016,-0.002,-0.0021,0,0,-0.0032,-0.0033,0,0,0,0,0,0,0,0,0.0165,0.0165,0.0161,0.0159,0.0157,0.014,0.0113,0.0095,0.0111,0.0125,0.0108,0.0107,0.0031,0.0023,0.0019,-0.0027,-0.0032,-0.0032,-0.0034,-0.0036,-0.0037,0,0,0,0,0,0,0,0.0166,0.0165,0.0171,0.0161,0.0159,0.0145,0.0142,0.0109,0.008,0.0124,0.0121,0.0123,0.0028,0.0023,0.0015,-0.0034,-0.0032,-0.0035,-0.0038,-0.0039,-0.0159,-0.0159,0,0,0,0,0,0,0.0176,0.0166,0.0172,0.0171,0.0162,0.0146,0.0143,0.0144,0.0083,0.0074,0.0124,0.0121,0.003,0.002,0.0011,-0.0018,-0.0036,-0.004,-0.0042,-0.0158,-0.0159,-0.016,0,0,0,0,0,0,0.0176,0.0177,0.0173,0.017,0.0169,0.0148,0.0149,0.0144,0.013,0.0085,0.0073,0.0114,0.0029,0.0016,-0.0022,-0.0023,-0.0041,-0.0045,-0.0157,-0.0158,-0.0159,-0.0061,0,0,0,0,0,0,0.0176,0.0177,0.0181,0.0171,0.017,0.0175,0.0151,0.0145,0.0135,0.013,0.0073,0.0061,0.0027,-0.0016,-0.0025,-0.0028,-0.0048,-0.0156,-0.0157,-0.0159,-0.0064,-0.0059,-0.0055,0,0,0,0,0,0.0175,0.0188,0.0182,0.0183,0.0176,0.0176,0.0174,0.0153,0.0136,0.0134,0.0095,0.0062,-0.0034,-0.0018,-0.003,-0.0034,-0.0155,-0.0157,-0.0159,-0.0065,-0.006,-0.0056,0,0,0,0,0,0,0.018,0.0185,0.0177,0.0188,0.0182,0.0169,0.0174,0.0154,0.0124,0.0118,0.0065,0.0051,0.0016,-0.0029,-0.001,-0.0079,-0.0106,-0.011,-0.0031,-0.0027,-0.0023,-0.0035,-0.0051,0,0,0,0,0,0.0187,0.0201,0.0195,0.0203,0.0206,0.0188,0.0186,0.0172,0.0148,0.0134,0.0096,0.0045,0.0002,-0.0027,-0.0066,-0.0097,-0.0149,-0.0116,-0.0112,-0.0108,-0.013,-0.0223,-0.0229,-0.0166,-0.0166,-0.0166,0,0,0.0191,0.0197,0.0203,0.0206,0.0203,0.022,0.0183,0.0186,0.0193,0.0124,0.0118,0.0067,-0.0003,-0.0033,-0.0055,-0.0072,-0.0141,-0.011,-0.0105,-0.0131,-0.0226,-0.0232,-0.0237,-0.0167,-0.0167,-0.0167,0,0,0.0221,0.0214,0.0241,0.0244,0.0249,0.0241,0.0242,0.023,0.0216,0.0204,0.0151,0.0095,0.0044,-0.0012,-0.0047,-0.0052,-0.011,-0.0069,-0.0063,-0.0151,-0.0157,-0.0163,-0.0174,-0.0182,-0.0074,-0.0074,-0.0074,0,0.0219,0.0258,0.0246,0.0276,0.0284,0.0254,0.0281,0.027,0.0244,0.0226,0.0212,0.0099,0.0052,-0.0018,-0.0023,-0.0041,-0.0083,-0.0063,-0.0144,-0.0151,-0.0159,-0.017,-0.018,-0.0069,-0.007,-0.007,-0.0071,0,0.0279,0.0303,0.032,0.0349,0.0353,0.037,0.0359,0.0352,0.033,0.0305,0.0239,0.0161,0.0073,0.0059,0.0018,-0.0068,-0.0072,-0.0115,-0.0146,-0.0159,-0.0169,-0.0181,-0.0063,-0.0065,-0.0066,-0.0067,0,0,0.0286,0.0348,0.0354,0.0374,0.0392,0.0396,0.0414,0.0403,0.0392,0.0344,0.0301,0.0215,0.0135,0.0084,0.001,-0.0066,-0.0126,-0.0117,-0.0124,-0.011,-0.0276,-0.0238,-0.0247,-0.019,-0.0194,-0.0196,-0.0237,0,0.0331,0.0402,0.042,0.0469,0.0497,0.0479,0.0496,0.0477,0.0442,0.0395,0.0287,0.0221,0.0155,0.0097,0.0004,-0.0131,-0.0166,-0.0108,-0.0285,-0.0289,-0.0241,-0.0264,-0.0206,-0.0246,-0.0249,-0.0251,-0.0253,0,0.0388,0.0425,0.0494,0.0524,0.0533,0.0566,0.0557,0.0561,0.0496,0.0456,0.0349,0.0252,0.0098,0.0064,-0.0164,-0.0133,-0.0192,-0.0261,-0.0266,-0.0287,-0.0277,-0.0253,-0.0276,-0.0274,-0.0272,-0.0271,-0.0269,0,0.0406,0.0469,0.0524,0.0539,0.0576,0.0603,0.0618,0.0589,0.0584,0.0481,0.0441,0.0245,0.0142,-0.0022,-0.0193,-0.0197,-0.0401,-0.0422,-0.041,-0.0404,-0.0466,-0.0461,-0.0517,-0.0517,-0.0517,-0.0517,-0.0517,0,0.0445,0.0482,0.0547,0.0577,0.0629,0.0642,0.0678,0.0658,0.0625,0.0594,0.046,0.0371,0.0108,-0.0046,-0.019,-0.0355,-0.0406,-0.0418,-0.0436,-0.0413,-0.0402,-0.047,-0.0464,-0.0518,-0.0518,-0.0518,-0.0517,0,0.0456,0.0504,0.056,0.0621,0.0651,0.0686,0.0747,0.0753,0.0722,0.0669,0.0631,0.0442,0.0218,0.0019,-0.0235,-0.0327,-0.0492,-0.0493,-0.0406,-0.0416,-0.0421,-0.041,-0.0524,-0.0523,-0.0523,-0.0522,-0.0522,0,0.0468,0.0509,0.0594,0.0635,0.0678,0.0743,0.0789,0.0801,0.0796,0.0699,0.0656,0.0472,0.0323,0.0008,-0.0209,-0.0443,-0.0445,-0.0493,-0.051,-0.0428,-0.0434,-0.0423,-0.0412,-0.0521,-0.0521,-0.0521,-0.0521,0,0.0478,0.0517,0.0563,0.0654,0.0725,0.0785,0.0845,0.0844,0.082,0.0803,0.066,0.0489,0.028,0.0007,-0.0139,-0.0314,-0.0489,-0.0489,-0.0492,-0.0507,-0.0426,-0.043,-0.042,-0.052,-0.052,-0.052,-0.052,0,0.0477,0.0508,0.0581,0.0653,0.0731,0.078,0.0824,0.0821,0.0824,0.0729,0.0675,0.0456,0.0326,0.008,-0.0093,-0.0247,-0.0285,-0.0322,-0.0333,-0.0337,-0.0283,-0.0153,-0.0189,0,0,0,0,0,0.0467,0.0505,0.0572,0.065,0.0722,0.0778,0.0826,0.0853,0.0835,0.0749,0.0722,0.0529,0.026,0.0128,-0.002,-0.0093,-0.0316,-0.0268,-0.0366,-0.0512,-0.0513,-0.0481,0,0,0,0,0,0,0.0461,0.0522,0.0559,0.0627,0.0679,0.0767,0.0797,0.08,0.0754,0.0711,0.0566,0.0519,0.0251,0.0348,-0.0016,-0.0065,-0.014,-0.0387,-0.0389,-0.0511,-0.0512,-0.0514,-0.0481,0,0,0,0,0]}]]